Flag for U.S.A. Weather past 2 weeks in Urbana, Illinois, U.S.A.

Now
32 °F

Ice fog.


Feels Like: 23 °F
Forecast: 30 / 44 °F
Wind: 12 mph from East

Location: University Of Illinois-Willard Airport

Current Time: Dec 22, 2014 at 6:15:42 AM

Latest Report: Dec 22, 2014 at 4:53 AM


Visibility: 6 mi

Pressure: 29.93 "Hg

Humidity: 88%

Dew point: 29 °F

Location of UrbanaLocation

Historic Weather in Urbana — Graph

°F

Urbana temperature yesterday

Maximum temperature yesterday: 39 °F (at 2:53 PM)
Minimum temperature yesterday: 29 °F (at 11:53 PM)
Average temperature yesterday: 33 °F

Past Weeks' High & Low Weather Summary

 TemperatureHumidityPressure
High49 °F (Dec 13, 12:53 PM)97% (Dec 8, 11:53 AM)30.63 "Hg (Dec 8, 11:53 AM)
Low16 °F (Dec 19, 5:53 AM)66% (Dec 19, 12:53 PM)29.67 "Hg (Dec 15, 11:59 PM)
Average34 °F86%30.22 "Hg
* Reported Dec 7 4:53 AM — Dec 22 4:53 AM, Urbana, Weather by CustomWeather, © 2014

Note: Actual official high and low records may vary slightly from our data, if they occured in-between our weather recording intervals... More about our weather records

Advertising

Urbana weather history for previous 24 hours

 ConditionsComfort  
Time TempWeatherWind HumidityBarometerVisibility
4:53 AM
Dec 22
32 °FIce fog.12 mph88%29.93 "Hg6 mi
3:53 AM32 °FIce fog.10 mph88%29.96 "Hg6 mi
2:53 AM32 °FIce fog.10 mph85%29.97 "Hg6 mi
1:53 AM31 °FIce fog.13 mph89%29.99 "Hg6 mi
12:53 AM30 °FIce fog.12 mph89%29.99 "Hg5 mi
11:53 PM
Dec 21
29 °FIce fog.8 mph93%30.02 "Hg5 mi
10:53 PM30 °FIce fog.9 mph89%30.03 "Hg5 mi
9:53 PM31 °FIce fog.10 mph89%30.06 "Hg5 mi
8:53 PM31 °FIce fog.10 mph89%30.06 "Hg6 mi
7:53 PM31 °FIce fog.10 mph89%30.08 "Hg6 mi
6:53 PM31 °FClear.8 mph89%30.09 "Hg7 mi
5:53 PM32 °FPassing clouds.8 mph85%30.10 "Hg8 mi
4:53 PM34 °FClear.8 mph79%30.10 "Hg10 mi
3:53 PM38 °FSunny.13 mph73%30.10 "Hg10 mi
2:53 PM39 °FScattered clouds.10 mph70%30.11 "Hg10 mi
1:53 PM37 °FOvercast.10 mph76%30.13 "Hg8 mi
12:53 PM36 °FOvercast.13 mph75%30.17 "Hg7 mi
11:53 AM38 °FPartly sunny.13 mph73%30.20 "Hg8 mi
10:53 AM36 °FOvercast.10 mph75%30.23 "Hg7 mi
9:53 AM33 °FOvercast.13 mph82%30.26 "Hg6 mi
8:53 AM32 °FOvercast.12 mph82%30.26 "Hg5 mi
7:53 AM31 °FIce fog.9 mph85%30.26 "Hg4 mi
6:53 AM31 °FIce fog.7 mph85%30.27 "Hg5 mi
Weather by CustomWeather, © 2014

See weather overviewHow to use our weather pages